User: anonymous   Login
Location: Auckland
(36.8670°S, 174.7670°E)
Time: 20:15:29
(UTC+13:00)
Language:

Cosmos 2219 Rocket - Orbit

View from above orbital plane
View from above orbital plane
View from above satellite
View from above satellite

Ground track
Ground track

The orbit data is extracted from the following two-line orbital elements,

1 22220U 92076B   19295.81497744  .00000200  00000-0  12444-3 0  9992
2 22220  71.0014  53.9288 0011366  37.9067  73.5921 14.16448149392213
Epoch (UTC): 22 October 2019 19:33:34
Eccentricity: 0.0011366
inclination: 71.0014°
perigee height: 829 km
apogee height: 845 km
right ascension of ascending node: 53.9288°
argument of perigee: 37.9067°
revolutions per day: 14.16448149
mean anomaly at epoch: 73.5921°
orbit number at epoch: 39221

The dashed part of the orbit path shows where the satellite is in the earth's shadow,  

DLR